Location: Lombard
(41.8800°N, 88.0080°W)
Time: 23:29:56
(UTC-05:00)

Tiros 1 - Pass Details

Date: 04 February 2023
Orbit: 628 x 662 km, 48.4° (Epoch: 20 March)

Event Time Altitude Azimuth Distance (km) Brightness Sun altitude
Rises 22:31:34 0° 209° (SSW) 2,895 - -57.1°
Reaches altitude 10° 22:34:05 10° 199° (SSW) 1,991 - -57.5°
Maximum altitude 22:38:03 29° 138° (SE) 1,139 - -58.0°
Drops below altitude 10° 22:42:02 10° 78° (ENE) 2,007 - -58.5°
Sets 22:44:35 0° 68° (ENE) 2,922 - -58.8°
